Location: Bodest
(46.3000°N, 22.5667°E)
Time: 21:15:31
(UTC+00:00)

BREEZE-M DEB (TANK) - Pass Details

Date: 16 October 2021
Orbit: 334 x 14800 km, 49.5° (Epoch: 28 November)

Event Time Altitude Azimuth Distance (km) Brightness Sun altitude
Rises 16:11:11 0° 269° (W) 7,681 11.4 -5.9°
Reaches altitude 10° 16:18:25 10° 273° (W) 4,773 9.5 -7.1°
Maximum altitude 16:27:54 61° 353° (N) 874 4.0 -8.8°
Enters shadow 16:30:52 12° 75° (ENE) 1,562 4.7 -9.3°
